owner,sensor,date,latitude,longitude,vertical_datum,direction_of_sea_water_velocity,sea_water_speed,upward_sea_water_velocity,qcFlag 
TABS,ioos:station:wmo:42046:1,2002-08-01T00:00:00Z,27.8903,-94.0367,2.0,196.8342586,43.81780118,-99999.0,'11111222,11111222,99999999' 
TABS,ioos:station:wmo:42046:1,2002-08-01T00:30:00Z,27.8903,-94.0367,2.0,201.1167286,43.99436441,-99999.0,'11111222,11111222,99999999' 
TABS,ioos:station:wmo:42046:1,2002-08-01T01:00:00Z,27.8903,-94.0367,2.0,202.3297371,42.26977171,-99999.0,'11111222,11111222,99999999' 
TABS,ioos:station:wmo:42046:1,2002-08-01T01:30:00Z,27.8903,-94.0367,2.0,209.3278977,16.88405461,-99999.0,'11111222,11111222,99999999' 
TABS,ioos:station:wmo:42046:1,2002-08-01T02:00:00Z,27.8903,-94.0367,2.0,214.8454415,34.65362319,-99999.0,'11111222,11111222,99999999' 
TABS,ioos:station:wmo:42046:1,2002-08-01T02:30:00Z,27.8903,-94.0367,2.0,221.4714469,32.05734393,-99999.0,'11111222,11111222,99999999' 
TABS,ioos:station:wmo:42046:1,2002-08-01T03:30:00Z,27.8903,-94.0367,2.0,224.1611327,28.50652732,-99999.0,'11111222,11111222,99999999' 
TABS,ioos:station:wmo:42046:1,2002-08-01T04:00:00Z,27.8903,-94.0367,2.0,229.5968051,25.05561813,-99999.0,'11111222,11111222,99999999' 
TABS,ioos:station:wmo:42046:1,2002-08-01T04:30:00Z,27.8903,-94.0367,2.0,235.1557278,23.13846365,-99999.0,'11111222,11111222,99999999' 
TABS,ioos:station:wmo:42046:1,2002-08-01T05:00:00Z,27.8903,-94.0367,2.0,241.147462,20.61955625,-99999.0,'11111222,11111222,99999999' 
TABS,ioos:station:wmo:42046:1,2002-08-01T05:30:00Z,27.8903,-94.0367,2.0,238.9914354,15.47089202,-99999.0,'11111222,11111222,99999999' 
TABS,ioos:station:wmo:42046:1,2002-08-01T06:30:00Z,27.8903,-94.0367,2.0,280.8106051,10.34355838,-99999.0,'11111222,11111222,99999999' 
TABS,ioos:station:wmo:42046:1,2002-08-01T07:00:00Z,27.8903,-94.0367,2.0,330.0639429,15.59001283,-99999.0,'11111222,11111222,99999999' 
TABS,ioos:station:wmo:42046:1,2002-08-01T07:30:00Z,27.8903,-94.0367,2.0,335.6304506,14.71070699,-99999.0,'11111222,11111222,99999999' 
TABS,ioos:station:wmo:42046:1,2002-08-01T08:00:00Z,27.8903,-94.0367,2.0,354.5291055,14.99832657,-99999.0,'11111222,11111222,99999999' 
TABS,ioos:station:wmo:42046:1,2002-08-01T08:30:00Z,27.8903,-94.0367,2.0,10.02279055,18.15709228,-99999.0,'11111222,11111222,99999999' 
TABS,ioos:station:wmo:42046:1,2002-08-01T09:30:00Z,27.8903,-94.0367,2.0,29.63372235,17.87840038,-99999.0,'11111222,11111222,99999999' 
TABS,ioos:station:wmo:42046:1,2002-08-01T10:00:00Z,27.8903,-94.0367,2.0,29.5334266,21.15922966,-99999.0,'11111222,11111222,99999999' 
TABS,ioos:station:wmo:42046:1,2002-08-01T10:30:00Z,27.8903,-94.0367,2.0,40.10102423,18.13282383,-99999.0,'11111222,11111222,99999999' 
TABS,ioos:station:wmo:42046:1,2002-08-01T11:00:00Z,27.8903,-94.0367,2.0,52.02202882,6.825276551,-99999.0,'11133222,11111222,99999999' 
TABS,ioos:station:wmo:42046:1,2002-08-01T11:30:00Z,27.8903,-94.0367,2.0,58.36807698,29.11558002,-99999.0,'11111222,11111222,99999999' 
TABS,ioos:station:wmo:42046:1,2002-08-01T12:30:00Z,27.8903,-94.0367,2.0,68.70964869,36.43673147,-99999.0,'11111222,11111222,99999999' 
TABS,ioos:station:wmo:42046:1,2002-08-01T13:00:00Z,27.8903,-94.0367,2.0,75.01411358,34.53454068,-99999.0,'11111222,11111222,99999999' 
TABS,ioos:station:wmo:42046:1,2002-08-01T13:30:00Z,27.8903,-94.0367,2.0,71.75032714,37.16960586,-99999.0,'11111222,11111222,99999999' 
TABS,ioos:station:wmo:42046:1,2002-08-01T14:00:00Z,27.8903,-94.0367,2.0,73.78389261,39.53281169,-99999.0,'11111222,11111222,99999999' 
TABS,ioos:station:wmo:42046:1,2002-08-01T14:30:00Z,27.8903,-94.0367,2.0,79.94422227,40.94905249,-99999.0,'11111222,11111222,99999999' 
TABS,ioos:station:wmo:42046:1,2002-08-01T15:30:00Z,27.8903,-94.0367,2.0,77.0054136,39.22449235,-99999.0,'11111222,11111222,99999999' 
TABS,ioos:station:wmo:42046:1,2002-08-01T16:00:00Z,27.8903,-94.0367,2.0,81.0176549,36.70007357,-99999.0,'11111222,11111222,99999999' 
TABS,ioos:station:wmo:42046:1,2002-08-01T16:30:00Z,27.8903,-94.0367,2.0,81.95712457,37.16557547,-99999.0,'11111222,11111222,99999999' 
TABS,ioos:station:wmo:42046:1,2002-08-01T17:00:00Z,27.8903,-94.0367,2.0,87.59949204,34.38017016,-99999.0,'11111222,11111222,99999999' 
TABS,ioos:station:wmo:42046:1,2002-08-01T17:30:00Z,27.8903,-94.0367,2.0,83.21016614,30.95711873,-99999.0,'11111222,11111222,99999999' 
TABS,ioos:station:wmo:42046:1,2002-08-01T18:30:00Z,27.8903,-94.0367,2.0,73.75604475,31.10160124,-99999.0,'11111222,11111222,99999999' 
TABS,ioos:station:wmo:42046:1,2002-08-01T19:00:00Z,27.8903,-94.0367,2.0,66.06764246,29.01453601,-99999.0,'11111222,11111222,99999999' 
TABS,ioos:station:wmo:42046:1,2002-08-01T19:30:00Z,27.8903,-94.0367,2.0,75.35549369,24.4441179,-99999.0,'11111222,11111222,99999999' 
TABS,ioos:station:wmo:42046:1,2002-08-01T20:00:00Z,27.8903,-94.0367,2.0,85.90903286,22.84821656,-99999.0,'11111222,11111222,99999999' 
TABS,ioos:station:wmo:42046:1,2002-08-01T20:30:00Z,27.8903,-94.0367,2.0,96.64552155,21.34340413,-99999.0,'11111222,11111222,99999999' 
TABS,ioos:station:wmo:42046:1,2002-08-01T21:30:00Z,27.8903,-94.0367,2.0,153.292628,25.23186874,-99999.0,'11111222,11111222,99999999' 
TABS,ioos:station:wmo:42046:1,2002-08-01T22:00:00Z,27.8903,-94.0367,2.0,173.0463169,26.10198651,-99999.0,'11111222,11111222,99999999' 
TABS,ioos:station:wmo:42046:1,2002-08-01T22:30:00Z,27.8903,-94.0367,2.0,189.0580562,41.03171944,-99999.0,'11111222,11111222,99999999' 
TABS,ioos:station:wmo:42046:1,2002-08-01T23:00:00Z,27.8903,-94.0367,2.0,194.404844,41.44292099,-99999.0,'11111222,11111222,99999999' 
TABS,ioos:station:wmo:42046:1,2002-08-01T23:30:00Z,27.8903,-94.0367,2.0,198.9198219,44.07108122,-99999.0,'11111222,11111222,99999999' 
TABS,ioos:station:wmo:42046:1,2002-08-02T00:30:00Z,27.8903,-94.0367,2.0,199.4106559,44.74323301,-99999.0,'11111222,11111222,99999999' 
TABS,ioos:station:wmo:42046:1,2002-08-02T01:00:00Z,27.8903,-94.0367,2.0,197.8864944,39.33104753,-99999.0,'11111222,11111222,99999999' 
TABS,ioos:station:wmo:42046:1,2002-08-02T01:30:00Z,27.8903,-94.0367,2.0,197.5276576,24.57081399,-99999.0,'11111222,11111222,99999999' 
TABS,ioos:station:wmo:42046:1,2002-08-02T02:00:00Z,27.8903,-94.0367,2.0,207.6267506,35.71166756,-99999.0,'11111222,11111222,99999999' 
TABS,ioos:station:wmo:42046:1,2002-08-02T02:30:00Z,27.8903,-94.0367,2.0,205.6932944,36.1658748,-99999.0,'11111222,11111222,99999999' 
TABS,ioos:station:wmo:42046:1,2002-08-02T03:30:00Z,27.8903,-94.0367,2.0,213.8273799,35.80045391,-99999.0,'11111222,11111222,99999999' 
TABS,ioos:station:wmo:42046:1,2002-08-02T04:00:00Z,27.8903,-94.0367,2.0,214.2751608,30.13288735,-99999.0,'11111222,11111222,99999999' 
TABS,ioos:station:wmo:42046:1,2002-08-02T04:30:00Z,27.8903,-94.0367,2.0,226.5448832,29.63147819,-99999.0,'11111222,11111222,99999999' 
TABS,ioos:station:wmo:42046:1,2002-08-02T05:00:00Z,27.8903,-94.0367,2.0,232.5877314,32.5574569,-99999.0,'11111222,11111222,99999999' 
TABS,ioos:station:wmo:42046:1,2002-08-02T05:30:00Z,27.8903,-94.0367,2.0,235.8831066,29.43598138,-99999.0,'11111222,11111222,99999999' 
TABS,ioos:station:wmo:42046:1,2002-08-02T06:30:00Z,27.8903,-94.0367,2.0,219.9680636,25.23489053,-99999.0,'11111222,11111222,99999999' 
TABS,ioos:station:wmo:42046:1,2002-08-02T07:00:00Z,27.8903,-94.0367,2.0,238.3459432,21.93282927,-99999.0,'11111222,11111222,99999999' 
TABS,ioos:station:wmo:42046:1,2002-08-02T07:30:00Z,27.8903,-94.0367,2.0,261.3628511,18.71219121,-99999.0,'11111222,11111222,99999999' 
TABS,ioos:station:wmo:42046:1,2002-08-02T08:00:00Z,27.8903,-94.0367,2.0,269.7795297,20.83015362,-99999.0,'11111222,11111222,99999999' 
TABS,ioos:station:wmo:42046:1,2002-08-02T08:30:00Z,27.8903,-94.0367,2.0,280.7521493,18.11806833,-99999.0,'11111222,11111222,99999999' 
TABS,ioos:station:wmo:42046:1,2002-08-02T09:30:00Z,27.8903,-94.0367,2.0,291.4035537,8.549619875,-99999.0,'11133222,11111222,99999999' 
TABS,ioos:station:wmo:42046:1,2002-08-02T10:00:00Z,27.8903,-94.0367,2.0,317.0646615,13.74093156,-99999.0,'11111222,11111222,99999999' 
TABS,ioos:station:wmo:42046:1,2002-08-02T10:30:00Z,27.8903,-94.0367,2.0,329.6845959,15.31408828,-99999.0,'11111222,11111222,99999999' 
TABS,ioos:station:wmo:42046:1,2002-08-02T11:00:00Z,27.8903,-94.0367,2.0,5.405639498,4.670770814,-99999.0,'11133222,11111222,99999999' 
TABS,ioos:station:wmo:42046:1,2002-08-02T11:30:00Z,27.8903,-94.0367,2.0,39.10891942,11.1605197,-99999.0,'11111222,11111222,99999999' 
TABS,ioos:station:wmo:42046:1,2002-08-02T12:30:00Z,27.8903,-94.0367,2.0,62.3426416,12.66739121,-99999.0,'11111222,11111222,99999999' 
TABS,ioos:station:wmo:42046:1,2002-08-02T13:00:00Z,27.8903,-94.0367,2.0,58.0040736,12.94681428,-99999.0,'11111222,11111222,99999999' 
TABS,ioos:station:wmo:42046:1,2002-08-02T13:30:00Z,27.8903,-94.0367,2.0,46.16315742,13.58632033,-99999.0,'11111222,11111222,99999999' 
TABS,ioos:station:wmo:42046:1,2002-08-02T14:00:00Z,27.8903,-94.0367,2.0,37.02508415,16.25805954,-99999.0,'11111222,11111222,99999999' 
TABS,ioos:station:wmo:42046:1,2002-08-02T14:30:00Z,27.8903,-94.0367,2.0,45.60638573,13.3650664,-99999.0,'11111222,11111222,99999999' 
TABS,ioos:station:wmo:42046:1,2002-08-02T15:30:00Z,27.8903,-94.0367,2.0,54.1336185,17.01660953,-99999.0,'11111222,11111222,99999999' 
TABS,ioos:station:wmo:42046:1,2002-08-02T16:00:00Z,27.8903,-94.0367,2.0,52.67395397,18.58658925,-99999.0,'11111222,11111222,99999999' 
TABS,ioos:station:wmo:42046:1,2002-08-02T16:30:00Z,27.8903,-94.0367,2.0,54.37734761,18.01026652,-99999.0,'11111222,11111222,99999999' 
TABS,ioos:station:wmo:42046:1,2002-08-02T17:00:00Z,27.8903,-94.0367,2.0,65.19859409,19.76278573,-99999.0,'11111222,11111222,99999999' 
TABS,ioos:station:wmo:42046:1,2002-08-02T17:30:00Z,27.8903,-94.0367,2.0,74.27663959,19.85287133,-99999.0,'11111222,11111222,99999999' 
TABS,ioos:station:wmo:42046:1,2002-08-02T18:30:00Z,27.8903,-94.0367,2.0,92.73631259,19.06173392,-99999.0,'11111222,11111222,99999999' 
TABS,ioos:station:wmo:42046:1,2002-08-02T19:00:00Z,27.8903,-94.0367,2.0,94.25557854,24.25687738,-99999.0,'11111222,11111222,99999999' 
TABS,ioos:station:wmo:42046:1,2002-08-02T19:30:00Z,27.8903,-94.0367,2.0,99.74130409,24.64534439,-99999.0,'11111222,11111222,99999999' 
TABS,ioos:station:wmo:42046:1,2002-08-02T20:00:00Z,27.8903,-94.0367,2.0,98.59253879,27.50876406,-99999.0,'11111222,11111222,99999999' 
TABS,ioos:station:wmo:42046:1,2002-08-02T20:30:00Z,27.8903,-94.0367,2.0,109.0216341,23.77841248,-99999.0,'11111222,11111222,99999999' 
TABS,ioos:station:wmo:42046:1,2002-08-02T21:00:00Z,27.8903,-94.0367,2.0,120.7433346,21.85079632,-99999.0,'11111222,11111222,99999999' 
TABS,ioos:station:wmo:42046:1,2002-08-02T21:30:00Z,27.8903,-94.0367,2.0,126.6570672,20.4681411,-99999.0,'11111222,11111222,99999999' 
TABS,ioos:station:wmo:42046:1,2002-08-02T22:00:00Z,27.8903,-94.0367,2.0,142.1001816,22.36761275,-99999.0,'11111222,11111222,99999999' 
TABS,ioos:station:wmo:42046:1,2002-08-02T22:30:00Z,27.8903,-94.0367,2.0,151.2863546,22.18844744,-99999.0,'11111222,11111222,99999999' 
TABS,ioos:station:wmo:42046:1,2002-08-02T23:00:00Z,27.8903,-94.0367,2.0,166.2130413,22.28195907,-99999.0,'11111222,11111222,99999999' 
TABS,ioos:station:wmo:42046:1,2002-08-02T23:30:00Z,27.8903,-94.0367,2.0,180.5689329,21.14104302,-99999.0,'11111222,11111222,99999999' 
TABS,ioos:station:wmo:42046:1,2002-08-03T00:00:00Z,27.8903,-94.0367,2.0,194.3099383,26.37847607,-99999.0,'11111222,11111222,99999999' 
TABS,ioos:station:wmo:42046:1,2002-08-03T00:30:00Z,27.8903,-94.0367,2.0,197.9684565,34.19800287,-99999.0,'11111222,11111222,99999999' 
TABS,ioos:station:wmo:42046:1,2002-08-03T01:00:00Z,27.8903,-94.0367,2.0,190.1532125,30.80239114,-99999.0,'11111222,11111222,99999999' 
TABS,ioos:station:wmo:42046:1,2002-08-03T01:30:00Z,27.8903,-94.0367,2.0,199.9234672,18.13545974,-99999.0,'11111222,11111222,99999999' 
TABS,ioos:station:wmo:42046:1,2002-08-03T02:00:00Z,27.8903,-94.0367,2.0,209.8966292,37.39660412,-99999.0,'11111222,11111222,99999999' 
TABS,ioos:station:wmo:42046:1,2002-08-03T02:30:00Z,27.8903,-94.0367,2.0,221.4920012,35.71215619,-99999.0,'11111222,11111222,99999999' 
TABS,ioos:station:wmo:42046:1,2002-08-03T03:00:00Z,27.8903,-94.0367,2.0,224.666089,38.86324742,-99999.0,'11111222,11111222,99999999' 
TABS,ioos:station:wmo:42046:1,2002-08-03T03:30:00Z,27.8903,-94.0367,2.0,231.4955745,38.5016597,-99999.0,'11111222,11111222,99999999' 
TABS,ioos:station:wmo:42046:1,2002-08-03T04:00:00Z,27.8903,-94.0367,2.0,233.7778739,37.48439809,-99999.0,'11111222,11111222,99999999' 
TABS,ioos:station:wmo:42046:1,2002-08-03T04:30:00Z,27.8903,-94.0367,2.0,235.2131762,39.27996563,-99999.0,'11111222,11111222,99999999' 
TABS,ioos:station:wmo:42046:1,2002-08-03T05:00:00Z,27.8903,-94.0367,2.0,240.5505823,42.04213363,-99999.0,'11111222,11111222,99999999' 
TABS,ioos:station:wmo:42046:1,2002-08-03T05:30:00Z,27.8903,-94.0367,2.0,248.3171887,42.92728386,-99999.0,'11111222,11111222,99999999' 
TABS,ioos:station:wmo:42046:1,2002-08-03T06:30:00Z,27.8903,-94.0367,2.0,253.0480847,40.67736103,-99999.0,'11111222,11111222,99999999' 
TABS,ioos:station:wmo:42046:1,2002-08-03T07:00:00Z,27.8903,-94.0367,2.0,252.8142046,38.71864796,-99999.0,'11111222,11111222,99999999' 
TABS,ioos:station:wmo:42046:1,2002-08-03T07:30:00Z,27.8903,-94.0367,2.0,256.1220817,35.89783559,-99999.0,'11111222,11111222,99999999' 
TABS,ioos:station:wmo:42046:1,2002-08-03T08:00:00Z,27.8903,-94.0367,2.0,259.6045452,31.81213133,-99999.0,'11111222,11111222,99999999' 
TABS,ioos:station:wmo:42046:1,2002-08-03T08:30:00Z,27.8903,-94.0367,2.0,262.3309848,30.20009603,-99999.0,'11111222,11111222,99999999' 
TABS,ioos:station:wmo:42046:1,2002-08-03T09:30:00Z,27.8903,-94.0367,2.0,261.6261055,26.30036692,-99999.0,'11111222,11111222,99999999' 
TABS,ioos:station:wmo:42046:1,2002-08-03T10:00:00Z,27.8903,-94.0367,2.0,271.1651926,24.10498081,-99999.0,'11111222,11111222,99999999' 
TABS,ioos:station:wmo:42046:1,2002-08-03T10:30:00Z,27.8903,-94.0367,2.0,276.9421851,24.82195802,-99999.0,'11111222,11111222,99999999' 
TABS,ioos:station:wmo:42046:1,2002-08-03T11:00:00Z,27.8903,-94.0367,2.0,275.8890159,17.93463688,-99999.0,'11111222,11111222,99999999' 
TABS,ioos:station:wmo:42046:1,2002-08-03T11:30:00Z,27.8903,-94.0367,2.0,272.2854583,20.56635359,-99999.0,'11111222,11111222,99999999' 
TABS,ioos:station:wmo:42046:1,2002-08-03T12:30:00Z,27.8903,-94.0367,2.0,265.9111462,14.44676434,-99999.0,'11111222,11111222,99999999' 
TABS,ioos:station:wmo:42046:1,2002-08-03T13:00:00Z,27.8903,-94.0367,2.0,282.9077994,10.83374358,-99999.0,'11111222,11111222,99999999' 
TABS,ioos:station:wmo:42046:1,2002-08-03T13:30:00Z,27.8903,-94.0367,2.0,294.9429714,9.319195244,-99999.0,'11133222,11111222,99999999' 
TABS,ioos:station:wmo:42046:1,2002-08-03T14:00:00Z,27.8903,-94.0367,2.0,316.5229395,7.717259876,-99999.0,'11133222,11111222,99999999' 
TABS,ioos:station:wmo:42046:1,2002-08-03T14:30:00Z,27.8903,-94.0367,2.0,4.050654043,5.804498256,-99999.0,'11133222,11111222,99999999' 
TABS,ioos:station:wmo:42046:1,2002-08-03T15:00:00Z,27.8903,-94.0367,2.0,17.10289943,3.808411742,-99999.0,'11133222,11111222,99999999' 
TABS,ioos:station:wmo:42046:1,2002-08-03T15:30:00Z,27.8903,-94.0367,2.0,84.99417915,2.750490865,-99999.0,'11133222,11111222,99999999' 
TABS,ioos:station:wmo:42046:1,2002-08-03T16:00:00Z,27.8903,-94.0367,2.0,103.7410132,5.178204322,-99999.0,'11133222,11111222,99999999' 
TABS,ioos:station:wmo:42046:1,2002-08-03T16:30:00Z,27.8903,-94.0367,2.0,80.88413448,7.069285678,-99999.0,'11133222,11111222,99999999' 
TABS,ioos:station:wmo:42046:1,2002-08-03T17:00:00Z,27.8903,-94.0367,2.0,152.75162,10.87700786,-99999.0,'11111222,11111222,99999999' 
TABS,ioos:station:wmo:42046:1,2002-08-03T17:30:00Z,27.8903,-94.0367,2.0,150.0387208,11.17312848,-99999.0,'11111222,11111222,99999999' 
TABS,ioos:station:wmo:42046:1,2002-08-03T18:00:00Z,27.8903,-94.0367,2.0,219.6685161,21.99423788,-99999.0,'11111222,11111222,99999999' 
TABS,ioos:station:wmo:42046:1,2002-08-03T18:30:00Z,27.8903,-94.0367,2.0,234.7752524,24.23799497,-99999.0,'11111222,11111222,99999999' 
TABS,ioos:station:wmo:42046:1,2002-08-03T19:00:00Z,27.8903,-94.0367,2.0,237.8808048,25.692279,-99999.0,'11111222,11111222,99999999' 
TABS,ioos:station:wmo:42046:1,2002-08-03T19:30:00Z,27.8903,-94.0367,2.0,241.7300405,26.16015482,-99999.0,'11111222,11111222,99999999' 
TABS,ioos:station:wmo:42046:1,2002-08-03T20:00:00Z,27.8903,-94.0367,2.0,241.3364619,26.01844154,-99999.0,'11111222,11111222,99999999' 
TABS,ioos:station:wmo:42046:1,2002-08-03T20:30:00Z,27.8903,-94.0367,2.0,243.2955794,22.11924954,-99999.0,'11111222,11111222,99999999' 
TABS,ioos:station:wmo:42046:1,2002-08-03T21:00:00Z,27.8903,-94.0367,2.0,225.8153638,20.86176407,-99999.0,'11111222,11111222,99999999' 
TABS,ioos:station:wmo:42046:1,2002-08-03T21:30:00Z,27.8903,-94.0367,2.0,221.8578265,20.12622667,-99999.0,'11111222,11111222,99999999' 
TABS,ioos:station:wmo:42046:1,2002-08-03T22:00:00Z,27.8903,-94.0367,2.0,220.9166956,22.04697712,-99999.0,'11111222,11111222,99999999' 
TABS,ioos:station:wmo:42046:1,2002-08-03T22:30:00Z,27.8903,-94.0367,2.0,217.9349641,20.00745861,-99999.0,'11111222,11111222,99999999' 
TABS,ioos:station:wmo:42046:1,2002-08-03T23:00:00Z,27.8903,-94.0367,2.0,222.4495929,22.09067903,-99999.0,'11111222,11111222,99999999' 
TABS,ioos:station:wmo:42046:1,2002-08-03T23:30:00Z,27.8903,-94.0367,2.0,226.2754104,20.00901047,-99999.0,'11111222,11111222,99999999' 
TABS,ioos:station:wmo:42046:1,2002-08-04T00:00:00Z,27.8903,-94.0367,2.0,222.2848176,23.58727199,-99999.0,'11111222,11111222,99999999' 
TABS,ioos:station:wmo:42046:1,2002-08-04T00:30:00Z,27.8903,-94.0367,2.0,227.3244732,21.78975218,-99999.0,'11111222,11111222,99999999' 
TABS,ioos:station:wmo:42046:1,2002-08-04T01:00:00Z,27.8903,-94.0367,2.0,224.361189,26.01607388,-99999.0,'11111222,11111222,99999999' 
TABS,ioos:station:wmo:42046:1,2002-08-04T01:30:00Z,27.8903,-94.0367,2.0,218.8723492,10.93067701,-99999.0,'11111222,11111222,99999999' 
TABS,ioos:station:wmo:42046:1,2002-08-04T02:00:00Z,27.8903,-94.0367,2.0,224.0542974,25.71390285,-99999.0,'11111222,11111222,99999999' 
TABS,ioos:station:wmo:42046:1,2002-08-04T02:30:00Z,27.8903,-94.0367,2.0,223.8577789,27.32096082,-99999.0,'11111222,11111222,99999999' 
TABS,ioos:station:wmo:42046:1,2002-08-04T03:30:00Z,27.8903,-94.0367,2.0,226.3989089,28.95758623,-99999.0,'11111222,11111222,99999999' 
TABS,ioos:station:wmo:42046:1,2002-08-04T04:00:00Z,27.8903,-94.0367,2.0,229.9248732,29.15559981,-99999.0,'11111222,11111222,99999999' 
TABS,ioos:station:wmo:42046:1,2002-08-04T04:30:00Z,27.8903,-94.0367,2.0,230.0214791,29.32313933,-99999.0,'11111222,11111222,99999999' 
TABS,ioos:station:wmo:42046:1,2002-08-04T05:00:00Z,27.8903,-94.0367,2.0,234.7743589,28.57176928,-99999.0,'11111222,11111222,99999999' 
TABS,ioos:station:wmo:42046:1,2002-08-04T05:30:00Z,27.8903,-94.0367,2.0,235.1309987,27.77694188,-99999.0,'11111222,11111222,99999999' 
TABS,ioos:station:wmo:42046:1,2002-08-04T06:00:00Z,27.8903,-94.0367,2.0,234.31961,26.19764875,-99999.0,'11111222,11111222,99999999' 
TABS,ioos:station:wmo:42046:1,2002-08-04T06:30:00Z,27.8903,-94.0367,2.0,234.7363697,33.74126405,-99999.0,'11111222,11111222,99999999' 
TABS,ioos:station:wmo:42046:1,2002-08-04T07:00:00Z,27.8903,-94.0367,2.0,242.8340894,35.4167898,-99999.0,'11111222,11111222,99999999' 
TABS,ioos:station:wmo:42046:1,2002-08-04T07:30:00Z,27.8903,-94.0367,2.0,247.0664475,37.41748254,-99999.0,'11111222,11111222,99999999' 
TABS,ioos:station:wmo:42046:1,2002-08-04T08:00:00Z,27.8903,-94.0367,2.0,255.7176667,35.6312363,-99999.0,'11111222,11111222,99999999' 
TABS,ioos:station:wmo:42046:1,2002-08-04T08:30:00Z,27.8903,-94.0367,2.0,261.676861,33.22996389,-99999.0,'11111222,11111222,99999999' 
TABS,ioos:station:wmo:42046:1,2002-08-04T09:00:00Z,27.8903,-94.0367,2.0,262.9792553,31.90922907,-99999.0,'11111222,11111222,99999999' 
TABS,ioos:station:wmo:42046:1,2002-08-04T09:30:00Z,27.8903,-94.0367,2.0,277.8859376,25.51123086,-99999.0,'11111222,11111222,99999999' 
TABS,ioos:station:wmo:42046:1,2002-08-04T10:00:00Z,27.8903,-94.0367,2.0,289.1603308,20.99287975,-99999.0,'11111222,11111222,99999999' 
TABS,ioos:station:wmo:42046:1,2002-08-04T10:30:00Z,27.8903,-94.0367,2.0,287.6374945,19.07670831,-99999.0,'11111222,11111222,99999999' 
TABS,ioos:station:wmo:42046:1,2002-08-04T11:00:00Z,27.8903,-94.0367,2.0,296.4577115,9.516722125,-99999.0,'11133222,11111222,99999999' 
TABS,ioos:station:wmo:42046:1,2002-08-04T11:30:00Z,27.8903,-94.0367,2.0,295.9345359,15.43427679,-99999.0,'11111222,11111222,99999999' 
TABS,ioos:station:wmo:42046:1,2002-08-04T12:30:00Z,27.8903,-94.0367,2.0,341.5653047,15.17893277,-99999.0,'11111222,11111222,99999999' 
TABS,ioos:station:wmo:42046:1,2002-08-04T13:00:00Z,27.8903,-94.0367,2.0,359.6545396,13.26024133,-99999.0,'11111222,11144222,99999999' 
TABS,ioos:station:wmo:42046:1,2002-08-04T13:30:00Z,27.8903,-94.0367,2.0,7.167635644,16.7508955,-99999.0,'11111222,11111222,99999999' 
TABS,ioos:station:wmo:42046:1,2002-08-04T14:00:00Z,27.8903,-94.0367,2.0,18.82385937,12.11812692,-99999.0,'11111222,11111222,99999999' 
TABS,ioos:station:wmo:42046:1,2002-08-04T14:30:00Z,27.8903,-94.0367,2.0,19.84605369,9.632055855,-99999.0,'11133222,11111222,99999999' 
TABS,ioos:station:wmo:42046:1,2002-08-04T15:00:00Z,27.8903,-94.0367,2.0,19.40285599,9.3616772,-99999.0,'11133222,11111222,99999999' 
TABS,ioos:station:wmo:42046:1,2002-08-04T15:30:00Z,27.8903,-94.0367,2.0,14.86646129,7.366579939,-99999.0,'11133222,11111222,99999999' 
TABS,ioos:station:wmo:42046:1,2002-08-04T16:00:00Z,27.8903,-94.0367,2.0,18.43511617,7.241615842,-99999.0,'11133222,11111222,99999999' 
TABS,ioos:station:wmo:42046:1,2002-08-04T16:30:00Z,27.8903,-94.0367,2.0,15.51967495,6.6525559,-99999.0,'11133222,11111222,99999999' 
TABS,ioos:station:wmo:42046:1,2002-08-04T17:00:00Z,27.8903,-94.0367,2.0,32.82867548,3.689173349,-99999.0,'11133222,11111222,99999999' 
TABS,ioos:station:wmo:42046:1,2002-08-04T17:30:00Z,27.8903,-94.0367,2.0,45.00010523,1.909188309,-99999.0,'11133222,11111222,99999999' 
TABS,ioos:station:wmo:42046:1,2002-08-04T18:30:00Z,27.8903,-94.0367,2.0,123.8868802,3.228374204,-99999.0,'11133222,11111222,99999999' 
TABS,ioos:station:wmo:42046:1,2002-08-04T19:00:00Z,27.8903,-94.0367,2.0,172.8747899,3.305525677,-99999.0,'11133222,11111222,99999999' 
TABS,ioos:station:wmo:42046:1,2002-08-04T19:30:00Z,27.8903,-94.0367,2.0,208.0722108,4.59,-99999.0,'11133222,11111222,99999999' 
TABS,ioos:station:wmo:42046:1,2002-08-04T20:00:00Z,27.8903,-94.0367,2.0,172.3614018,3.46070802,-99999.0,'11133222,11111222,99999999' 
TABS,ioos:station:wmo:42046:1,2002-08-04T20:30:00Z,27.8903,-94.0367,2.0,225.4763426,8.499717642,-99999.0,'11133222,11111222,99999999' 
TABS,ioos:station:wmo:42046:1,2002-08-04T21:00:00Z,27.8903,-94.0367,2.0,223.1609692,8.815089336,-99999.0,'11133222,11111222,99999999' 
TABS,ioos:station:wmo:42046:1,2002-08-04T21:30:00Z,27.8903,-94.0367,2.0,220.2995241,11.13194053,-99999.0,'11111222,11111222,99999999' 
TABS,ioos:station:wmo:42046:1,2002-08-04T22:00:00Z,27.8903,-94.0367,2.0,225.3227766,7.523735774,-99999.0,'11133222,11111222,99999999' 
TABS,ioos:station:wmo:42046:1,2002-08-04T22:30:00Z,27.8903,-94.0367,2.0,248.9748036,9.72761533,-99999.0,'11133222,11111222,99999999' 
TABS,ioos:station:wmo:42046:1,2002-08-04T23:00:00Z,27.8903,-94.0367,2.0,250.5595897,9.374433316,-99999.0,'11133222,11111222,99999999' 
TABS,ioos:station:wmo:42046:1,2002-08-04T23:30:00Z,27.8903,-94.0367,2.0,247.7277684,6.332424496,-99999.0,'11133222,11111222,99999999' 
TABS,ioos:station:wmo:42046:1,2002-08-05T00:00:00Z,27.8903,-94.0367,2.0,247.5912775,11.04392141,-99999.0,'11111222,11111222,99999999' 
TABS,ioos:station:wmo:42046:1,2002-08-05T00:30:00Z,27.8903,-94.0367,2.0,245.3363935,9.29822026,-99999.0,'11133222,11111222,99999999' 
TABS,ioos:station:wmo:42046:1,2002-08-05T01:00:00Z,27.8903,-94.0367,2.0,241.9744705,12.11000413,-99999.0,'11111222,11111222,99999999' 
TABS,ioos:station:wmo:42046:1,2002-08-05T01:30:00Z,27.8903,-94.0367,2.0,248.6714975,7.643480882,-99999.0,'11133222,11111222,99999999' 
TABS,ioos:station:wmo:42046:1,2002-08-05T02:00:00Z,27.8903,-94.0367,2.0,259.0200278,15.64640534,-99999.0,'11111222,11111222,99999999' 